   f/2.44 Oschin Schmidt + CCD.
(I89) iTelescope Observatory, Nerpio  (N38.165287 W2.326100)  Spain.
(J95) Great Shefford  (N51.474969 W1.447003)  UK.  Observer P. Birtwhistle.
   0.40-m f/6.0 Schmidt-Cassegrain + CCD.
(K74) Muensterschwarzach Observatory, Schwarzach  (N49.805279 E10.236400)
   Germany.
(K83) Beppe Forti Astronomical Observatory, Montelupo  (N43.755333
   E11.043170)  Italy.
(L01) Višnjan Observatory, Tičan  (N45.290900 E13.749300)  Croatia.
   Observers K. Korlević, E. Pettarin. Measurer E. Pettarin. 1.0-m f/2.9
   reflector + CCD.
(L04) ROASTERR-1 Observatory, Cluj-Napoca  (N46.820954 E23.596400)  Romania.
(L39) Osservatorio Spica, Signa  (N43.789205 E11.040310)  Italy.
(N51) GROWTH India Telescope, IAO, Hanle  (N32.779244 E78.964610)  India.
(N88) Xingming Observatory #3, Nanshan  (N43.471787 E87.173220)  China.
(P93) Space Tracking and Communications Center, JAXA  (N34.672353
   E133.544330)  Japan.  Observers S. Okumura, T. Fujiwara. 1.0-m f/3.0
   reflector + CCD.
(X31) Galileo Galilei Observatory, Oro Verde  (S31.823022 W60.520660)
   Argentina.
(Z80) Northolt Branch Observatory  (N51.554661 W0.371920)  UK.  Observer G.
   Wells. Measurer D. Bamberger. 0.25-m f/8 Ritchey-Chrétien + CCD.
(Z99) Clixby Observatory, Cleethorpes  (N53.546062 W0.021260)  UK.

Orbital elements:  TMG0028
   Perihelion 2020 Sep 11.781324 +/- 0.0108 TT = 18:45:06 (JD 2459104.281324)
Epoch 2020 Oct 28.0 TT = JDT 2459150.5   Earth MOID: 0.0046   Ve: 0.0100
M  12.63032783 +/- 0.026            Ma: 0.0354                AutoNEOCP
n   0.27327324 +/- 0.000514         Peri.  266.73626 +/- 0.0015
a   2.35182301 +/- 0.00294          Node    37.22539 +/- 0.00017
e   0.7594953 +/- 0.00035           Incl.    4.53690 +/- 0.0021
P   3.61                   H 22.7   G  0.15   U  7.7  
q 0.56562446 +/- 0.000114    Q 4.13802156 +/- 0.00599
From 114 observations 2020 Oct. 27-28 (27.8 hr); mean residual 0".74
Residuals in arcseconds: 
201027 381  1.4-  .23-    201027 J95  .36+  .00     201028 I89  1.4-  .54+    
201027 381  1.2-  .39+    201027 J95  .15+  .05-    201028 I89  1.8-  .50+    
201027 381  .75+  1.0-    201027 J95  .01+  .01+    201028 X31  .07+  .64+    
201027 381  .92-  1.2+    201027 K83  .35-  .14+    201028 X31  .89-  .69+    
201027 381  .80-  .30+    201027 L39  .39-  .08-    201028 X31  .53-  .11+    
201027 381  .25-  .22-    201027 L39  .44-  .31-    201028 X31  .64-  .04+    
201027 381  .39-  .20-    201027 595  .10-  .14+    201028 X31  .31-  .07+    
201027 381  1.3+  .16-    201027 L39  .51-  .24-    201028 X31  1.0-  .06+    
201027 381  .24+  .23-    201027 595  .12-  .07+    201028 X31  .71-  .02-    
201027 381  1.5-  .31-    201027 595  .06+  .23-    201028 I89  1.3-  .78+    
201027 381  .41+  .36-    201027 595  .14+  .06-    201028 I89  1.7-  .67+    
201027 381  .90-  .13+    201027 Z80  .21+  .08-    201028 I89  2.1-  .73+    
201027 381  .05-  .65-    201027 Z80  .68+  .26+    201028 I89  2.1-  .67+    
201027 381  .07-  .45+    201027 Z80  .21+  .15+    201028 718  .78-  .42+    
201027 K74  .67+  .20-    201027 Z80  .88+  .10-    201028 718  .93-  .51+    
201027 K74  .34+  .26-    201027 Z80  .12+  .05+    201028 718  .95+  .20+    
201027 K74  .35+  .59-    201027 Z80  .16+  .09+    201028 718  .57-  .40+    
201027 K74  .13-  .20+    201027 Z80  .20+  .20-    201028 718  .17-  .10+    
201027 L01  .14+  .20-    201027 Z80  .30+  .19+    201028 718  .20-  .19+    
201027 L01  .15+  .09+    201027 970  .76+  .34-    201028 718  .59-  .41+    
201027 L01  .02+  .16+    201027 Z80  .43+  .14-    201028 718  .35-  .31+    
201027 L01  .08-  .10+    201027 970  .43+  .30-    201028 718  .31-  .23+    
201027 L01  .15+  .13+    201027 Z99  .41-  .30+    201028 I41  2.3+  2.1-    
201027 L01  .13-  .01-    201027 Z99  .48-  .08+    201028 I41  1.5+  1.5-    
201027 L01  .12-  .10+    201027 585  .87+  .69+    201028 I41  2.6+  1.5-    
201027 L04  .58-  .15+    201027 585  .10-  .33-    201028 I41  1.1+  .48-    
201027 L04  .14-  .31+    201027 585  .04+  .18+    201028 N51  1.2+  .04+    
201027 L04  .63-  .09+    201027 585  .43-  .53+    201028 N51  .85+  .02-    
201027 970  .21+  .48-    201027 585  .59+  .06-    201028 N51  .37+  .39+    
201027 L04  .55-  .42+    201027 Z99  .39-  .39+    201028 P93  .82+  .62-    
201027 970  .10-  .17-    201027 585  .49+  .02+    201028 P93  2.1+  1.1-    
201027 970  .41+  .30-    201027 585  .34+  .03+    201028 P93  1.0+  .53-    
201027 L04  .41-  .21+    201027 585  .30+  .30+    201028 P93  2.2+  .02-    
201027 K83  .41-  .34-    201027 Z99  .42-  .35+    201028 N88  1.8-  .50+    
201027 K83  .50-  .22+    201027 Z99  .36-  .20-    201028 N88  2.1-  .69+    
201027 K83  .44-  .17+    201028 970  .28+  .29-    201028 N88  2.1-  .58+    
201027 K83  .84-  .44+    201028 970  .08+  .32-    201028 N88  2.2-  .77+    
201027 J95  .23+  .00     201028 I89  1.8-  .61+    201028 N88  2.5-  .77+    

Ephemerides (geocentric):
Date (UTC) HH   RA              Dec         delta   r     elong  mag " sig PA
---- -- -- --  -------------   -----------  ------ ------ -----  --- ---- ---
2020 10 28 19  03 18 20.060   +14 55 58.52  .03053 1.0227 164.1 16.0 .043 145
2020 10 28 20  03 16 55.976   +15 00 08.27  .03105 1.0233 164.5 16.1 .042 143
2020 10 28 21  03 15 34.620   +15 04 07.91  .03157 1.0238 164.8 16.1 .041 142
2020 10 28 22  03 14 15.865   +15 07 58.00  .03210 1.0244 165.2 16.1 .040 140
2020 10 28 23  03 12 59.593   +15 11 39.06  .03262 1.0249 165.5 16.1 .039 138
2020 10 29 00  03 11 45.695   +15 15 11.58  .03315 1.0255 165.8 16.2 .039 135
2020 10 29 01  03 10 34.063   +15 18 36.01  .03368 1.0260 166.2 16.2 .038 133
2020 10 29 02  03 09 24.600   +15 21 52.77  .03420 1.0265 166.5 16.2 .038 131
2020 10 29 03  03 08 17.212   +15 25 02.25  .03473 1.0271 166.8 16.2 .038 128
2020 10 29 04  03 07 11.810   +15 28 04.83  .03526 1.0276 167.1 16.3 .038 126
2020 10 29 05  03 06 08.310   +15 31 00.84  .03579 1.0282 167.4 16.3 .038 124
2020 10 29 06  03 05 06.634   +15 33 50.63  .03632 1.0287 167.6 16.3 .038 122
2020 10 29 07  03 04 06.705   +15 36 34.48  .03686 1.0293 167.9 16.3 .039 119
2020 10 29 08  03 03 08.454   +15 39 12.69  .03739 1.0298 168.2 16.3 .039 117
2020 10 29 09  03 02 11.812   +15 41 45.53  .03792 1.0304 168.4 16.4 .040 115
2020 10 29 10  03 01 16.716   +15 44 13.24  .03845 1.0309 168.7 16.4 .040 113
2020 10 29 11  03 00 23.104   +15 46 36.08  .03899 1.0314 168.9 16.4 .041 111
2020 10 29 12  02 59 30.920   +15 48 54.25  .03952 1.0320 169.2 16.4 .042 110
2020 10 29 13  02 58 40.108   +15 51 07.97  .04006 1.0325 169.4 16.5 .043 108
2020 10 29 14  02 57 50.616   +15 53 17.45  .04060 1.0331 169.6 16.5 .044 106
2020 10 29 15  02 57 02.395   +15 55 22.87  .04113 1.0336 169.9 16.5 .045 105
2020 10 29 16  02 56 15.397   +15 57 24.40  .04167 1.0342 170.1 16.5 .046 104
2020 10 29 17  02 55 29.578   +15 59 22.22  .04221 1.0347 170.3 16.5 .047 102
2020 10 29 18  02 54 44.895   +16 01 16.48  .04275 1.0353 170.5 16.6 .048 101
2020 10 29 19  02 54 01.307   +16 03 07.33  .04328 1.0358 170.7 16.6 .049 100
2020 10 29 20  02 53 18.774   +16 04 54.92  .04382 1.0364 170.9 16.6 .050  99
2020 10 29 21  02 52 37.261   +16 06 39.37  .04436 1.0369 171.1 16.6 .052  98
2020 10 29 22  02 51 56.731   +16 08 20.83  .04490 1.0374 171.3 16.6 .053  97
2020 10 29 23  02 51 17.150   +16 09 59.40  .04544 1.0380 171.5 16.7 .054  96
2020 10 30 00  02 50 38.487   +16 11 35.20  .04598 1.0385 171.7 16.7 .055  96
2020 10 30 01  02 50 00.710   +16 13 08.35  .04652 1.0391 171.8 16.7 .057  95
2020 10 30 02  02 49 23.790   +16 14 38.94  .04707 1.0396 172.0 16.7 .058  94
2020 10 30 03  02 48 47.698   +16 16 07.08  .04761 1.0402 172.2 16.7 .059  94
2020 10 30 04  02 48 12.408   +16 17 32.85  .04815 1.0407 172.4 16.8 .060  93
2020 10 30 05  02 47 37.893   +16 18 56.35  .04869 1.0413 172.5 16.8 .062  93
2020 10 30 06  02 47 04.129   +16 20 17.66  .04923 1.0418 172.7 16.8 .063  92
2020 10 30 07  02 46 31.092   +16 21 36.86  .04978 1.0423 172.9 16.8 .064  92
2020 10 30 08  02 45 58.758   +16 22 54.03  .05032 1.0429 173.0 16.8 .065  91
2020 10 30 09  02 45 27.107   +16 24 09.24  .05086 1.0434 173.2 16.8 .067  91
2020 10 30 10  02 44 56.116   +16 25 22.56  .05141 1.0440 173.3 16.9 .068  90
2020 10 30 11  02 44 25.767   +16 26 34.06  .05195 1.0445 173.5 16.9 .069  90
2020 10 30 12  02 43 56.039   +16 27 43.80  .05250 1.0451 173.6 16.9 .070  90
2020 10 30 13  02 43 26.914   +16 28 51.85  .05304 1.0456 173.7 16.9 .072  89
2020 10 30 14  02 42 58.374   +16 29 58.25  .05359 1.0462 173.9 16.9 .073  89
2020 10 30 15  02 42 30.402   +16 31 03.08  .05413 1.0467 174.0 16.9 .074  89
2020 10 30 16  02 42 02.981   +16 32 06.37  .05468 1.0472 174.2 17.0 .075  88
2020 10 30 17  02 41 36.096   +16 33 08.18  .05522 1.0478 174.3 17.0 .077  88
2020 10 30 18  02 41 09.730   +16 34 08.57  .05577 1.0483 174.4 17.0 .078  88